Terminal Aerodrome Forecast
Issued by NWS Pittsburgh, PA

Current Version | Previous Version | Graphics & Text | Print | Product List | Glossary On
Versions: 1 2 3 4 5 6 7 8 9 10 11 12 13 14 15 16 17 18 19 20 21 22 23 24
000
FTUS41 KPBZ 270234 AAA
TAFPIT
TAF AMD
KPIT 270234Z 2703/2806 32005KT P6SM OVC070
      TEMPO 2709/2712 3SM BR BKN025
     FM271800 35003KT P6SM SCT045=

USA.gov is the U.S. government's official web portal to all federal, state and local government web resources and services.